Theta_e
319 318 318 316 317 317 315 314 314 314 314 313 312 313 313 313 313 303 298 304 308 317 315 306 305 304 305 301 305 306 295 293 295 295 296 301 301 306 314 313 315 316 317 324 332
319 318 317 316 316 317 315 314 313 313 315 312 312 313 312 312 303 299 307 314 316 315 305 301 298 300 297 297 300 299 293 293 301 302 298 303 303 304 312 315 316 320 329 327 328
320 319 317 316 315 317 315 314 312 312 315 312 312 312 311 307 296 295 312 313 311 313 307 305 301 299 293 297 296 296 292 297 302 305 307 306 304 306 307 309 316 315 323 324 324
321 320 318 316 315 315 314 313 312 311 314 313 311 311 312 301 281 298 312 311 312 307 303 300 298 292 291 290 296 292 297 299 301 306 306 304 307 302 305 307 312 322 327 326 325
321 320 318 316 314 314 314 312 311 311 313 313 310 312 302 293 293 303 310 308 308 306 299 296 294 292 289 290 293 292 295 300 302 306 305 308 306 303 303 308 323 327 327 324 322
322 319 317 315 314 314 311 312 311 310 311 312 309 310 297 285 297 300 301 303 304 302 298 298 295 295 292 290 291 293 295 296 302 302 303 305 304 303 304 307 320 324 325 325 325
322 319 317 314 314 314 311 310 309 309 310 312 310 306 296 290 299 301 304 303 303 302 298 300 300 296 293 290 295 295 291 294 297 301 299 300 300 300 303 307 314 321 323 325 326
322 318 317 314 313 312 310 309 308 310 311 312 310 300 289 302 300 299 304 303 304 304 302 303 303 298 295 296 293 289 292 287 295 300 301 295 292 299 304 305 305 312 318 322 326
322 318 316 313 313 310 308 308 308 310 310 310 299 295 289 304 298 300 299 298 301 302 303 304 300 294 294 289 285 288 280 285 293 299 297 293 292 300 303 303 302 302 310 317 321
323 318 315 312 311 309 308 309 309 308 306 305 301 290 293 292 297 298 300 300 297 297 297 296 291 289 289 286 278 280 283 286 288 296 296 292 288 295 302 302 300 300 302 308 315
321 317 314 312 310 308 306 300 294 292 295 290 290 291 293 297 299 298 300 297 297 293 287 291 285 283 284 288 287 286 286 287 292 298 294 292 291 295 301 300 300 300 300 303 307
319 315 313 312 309 309 302 294 295 294 288 296 295 294 296 297 292 297 301 291 291 286 289 287 283 289 290 291 289 287 287 289 294 296 294 293 291 295 298 300 301 301 301 301 303
317 314 312 310 309 304 298 298 300 297 287 292 295 293 294 296 292 293 296 293 289 286 285 284 288 292 289 289 288 287 288 290 290 293 296 293 290 292 296 300 300 302 303 301 302
316 313 311 309 301 299 296 301 300 296 274 282 289 293 296 296 288 298 299 294 289 286 289 288 292 289 287 289 291 285 292 293 291 290 286 294 282 290 294 295 297 298 299 301 302
315 312 310 309 300 296 300 300 298 290 263 283 288 299 297 292 292 293 300 296 289 290 290 288 289 288 287 291 292 288 295 293 292 289 289 289 285 288 292 291 293 295 297 299 301
314 311 310 305 302 300 301 299 294 273 264 277 289 288 289 292 293 296 296 298 297 292 294 290 290 291 292 294 295 295 292 290 290 287 280 287 285 286 287 291 293 294 295 298 300
313 310 308 306 297 301 300 292 276 266 281 279 282 287 286 286 289 291 291 291 286 281 282 289 291 295 295 290 295 292 285 278 277 278 277 287 284 287 291 293 292 293 294 295 297
311 310 306 304 302 300 293 283 268 279 278 286 285 286 282 286 286 287 287 285 288 284 278 274 279 290 295 292 290 289 286 278 275 276 277 286 282 285 290 292 292 292 293 294 295
310 304 301 301 302 297 287 273 273 278 284 284 284 281 281 285 285 285 284 284 287 288 279 279 284 293 294 295 293 289 281 285 279 279 276 281 284 288 290 291 291 291 291 291 293
302 300 299 303 300 293 283 280 279 286 288 286 280 281 278 281 282 282 283 287 288 290 287 283 283 289 293 295 294 289 289 280 279 273 272 276 278 281 285 289 290 290 290 291 292
300 294 300 302 298 290 280 279 285 291 291 286 283 281 281 280 281 281 282 288 290 289 288 285 282 284 287 286 286 286 285 283 282 278 275 274 278 284 285 287 289 289 291 291 292
296 287 300 301 288 288 283 285 292 290 292 290 289 286 283 283 282 282 282 285 291 290 285 287 282 280 281 289 291 289 285 282 277 277 274 275 278 285 286 287 290 291 292 292 293
292 292 301 299 282 283 284 288 290 289 289 289 288 289 287 284 282 285 286 292 293 290 285 286 280 272 277 282 286 284 286 285 282 279 274 273 277 288 286 289 290 290 292 293 293
293 286 292 295 291 282 284 286 287 292 290 291 288 289 287 285 287 284 285 291 293 292 296 291 281 278 273 278 282 282 284 285 282 274 277 277 279 284 287 288 289 290 290 292 293
291 286 288 284 287 287 284 288 286 286 290 290 287 287 286 282 282 284 286 288 292 294 289 287 279 277 282 283 284 284 284 283 278 281 278 281 282 286 288 289 290 290 291 293 294
288 285 286 284 287 288 288 285 286 287 288 286 286 287 287 285 284 284 286 284 284 288 285 286 278 279 279 283 283 282 283 283 283 284 284 283 284 290 290 290 291 291 292 292 293
289 290 288 288 283 287 283 287 288 290 290 290 289 287 286 287 288 289 286 289 288 285 285 284 281 278 275 280 280 276 281 281 283 283 284 281 285 287 287 289 290 291 292 292 292
Wind_Speed
15 15 13 13 13 7 8 8 12 12 7 5 7 8 8 8 8 2 4 7 5 9 3 3 4 5 2 2 2 4 6 12 13 10 7 3 10 4 1 11 6 17 13 9 13
14 16 14 12 13 8 8 7 9 10 7 4 6 7 7 7 2 5 8 7 6 2 3 3 3 5 3 2 4 5 10 15 3 5 5 11 5 5 5 6 4 8 7 16 20
15 16 14 12 11 9 8 7 7 9 9 4 5 6 7 3 2 5 4 4 2 4 3 2 1 2 3 3 5 4 14 15 9 9 4 6 6 6 5 7 7 22 21 21 17
16 15 13 12 10 11 7 7 7 8 8 5 4 6 7 1 3 3 4 3 6 6 4 1 1 2 5 7 5 6 8 10 13 7 4 6 10 8 5 2 5 17 26 20 18
16 13 12 11 9 10 8 7 5 8 7 5 3 5 2 1 7 4 3 6 5 3 3 3 4 3 6 6 5 9 11 6 14 5 6 8 8 7 7 4 5 18 21 27 27
16 14 12 10 9 9 7 7 4 6 5 4 2 3 2 2 4 0 3 2 2 3 3 3 4 7 6 7 7 6 14 12 7 11 5 10 6 5 3 7 6 19 22 16 17
20 14 11 8 9 9 7 6 6 5 4 5 2 2 2 10 1 4 2 1 3 3 4 6 10 12 7 4 8 9 4 11 13 9 7 10 8 6 7 5 4 9 16 19 14
17 14 12 9 9 6 5 7 3 3 4 6 1 3 5 5 1 2 3 2 2 2 3 3 3 10 8 3 3 8 6 3 11 11 5 9 9 2 9 2 4 6 6 14 17
19 16 13 7 9 6 5 5 3 1 3 2 3 3 8 7 1 4 5 4 3 2 3 3 2 3 4 2 4 7 4 6 5 13 8 7 10 8 10 5 5 5 6 6 4
19 15 12 9 7 7 5 3 1 4 1 2 1 1 4 1 2 2 4 4 4 2 3 6 1 4 3 5 8 8 6 6 7 9 13 6 13 17 9 6 4 5 4 4 6
15 14 14 9 9 7 3 3 3 3 1 6 4 3 3 2 0 1 2 5 2 2 4 3 3 6 15 12 9 5 4 8 2 13 6 9 8 15 13 4 5 3 3 3 3
17 17 14 12 10 6 5 3 3 3 2 6 4 4 4 2 2 2 3 2 3 6 5 4 6 7 8 9 11 11 9 10 14 13 5 7 6 12 11 5 4 3 2 2 2
15 19 14 12 10 5 3 3 2 3 3 3 4 3 3 3 2 2 2 4 4 7 9 6 2 11 7 7 10 5 14 9 9 10 4 5 4 4 6 5 4 5 4 1 0
14 19 17 15 5 4 3 4 4 4 6 4 2 4 2 3 1 3 4 5 2 4 4 6 4 6 7 5 8 6 9 13 18 10 5 2 2 4 4 11 6 7 5 6 5
15 20 19 15 5 4 4 7 6 6 5 4 1 1 1 2 2 4 3 6 4 4 5 1 5 6 3 3 8 3 13 12 10 6 5 4 3 4 4 9 9 6 7 8 8
16 21 19 5 1 1 7 6 5 9 5 3 2 2 4 3 3 3 5 5 3 6 2 5 2 3 3 3 8 13 15 7 4 2 4 4 3 5 2 7 2 4 8 7 7
21 22 14 4 4 6 6 4 7 6 4 3 2 3 3 4 2 1 3 4 2 3 7 7 14 3 6 10 8 8 6 3 4 3 3 1 1 7 3 7 3 8 9 7 6
22 20 7 2 6 6 4 6 5 2 4 1 2 3 3 3 3 3 3 4 4 3 4 6 6 11 12 5 4 4 3 4 5 3 2 5 3 5 2 6 4 1 3 3 6
24 4 3 2 5 3 5 4 7 6 6 7 3 2 4 2 0 4 5 3 3 6 4 4 5 4 6 2 2 4 4 2 7 4 5 1 6 7 4 6 6 7 8 8 7
7 5 2 3 2 5 5 3 2 3 4 2 3 2 1 4 5 4 5 3 6 4 0 2 6 4 5 3 4 3 1 2 4 4 3 1 3 3 8 8 6 8 8 7 6
8 5 2 3 2 4 3 5 3 3 2 3 4 4 4 1 1 2 3 3 5 7 4 3 4 3 2 4 3 6 4 4 6 4 4 2 3 3 7 6 3 6 6 6 7
4 5 3 2 4 1 3 5 4 4 2 0 3 3 4 2 4 3 2 1 6 4 5 4 5 4 2 4 2 2 2 3 5 1 3 3 4 2 4 2 4 4 4 3 3
5 4 2 1 5 3 3 3 3 3 3 2 1 2 3 2 3 3 2 3 6 5 3 1 3 3 7 6 5 4 3 4 5 5 1 4 5 3 3 5 4 4 5 5 6
5 5 2 2 2 4 4 4 4 2 4 2 1 1 3 3 5 3 2 4 5 3 7 4 3 4 6 4 2 3 3 3 5 4 3 4 3 5 7 6 7 6 5 6 7
3 3 3 9 7 5 2 4 5 4 1 1 0 2 4 3 2 3 2 4 4 7 4 4 4 3 3 1 3 2 3 2 2 2 5 3 5 6 7 6 7 6 6 8 9
5 5 2 1 9 5 1 4 5 3 4 3 3 2 2 4 4 5 4 1 0 5 3 3 1 3 5 7 5 1 1 2 3 3 4 4 7 5 5 5 6 8 8 8 8
1 1 6 6 5 5 5 6 7 7 3 1 6 5 5 2 4 5 3 6 4 2 2 3 3 3 3 4 3 4 1 1 2 1 1 2 5 5 8 7 6 7 6 7 7
Wind_Direction
280 284 289 300 298 294 311 310 322 311 303 333 327 318 318 325 328 358 236 217 200 272 28 334 16 335 327 228 219 325 244 230 214 217 234 256 238 203 113 142 175 177 153 149 118
258 270 281 290 295 294 303 293 316 310 305 323 319 319 321 328 330 277 243 264 264 327 75 76 322 9 311 221 225 204 226 233 220 211 233 247 279 206 150 174 173 146 121 143 142
244 258 269 282 295 299 301 290 311 306 322 299 311 316 321 349 329 250 229 208 340 95 88 90 90 129 239 226 215 211 237 229 227 221 292 302 294 308 180 199 192 178 157 160 148
237 252 265 275 292 296 288 287 295 317 328 272 296 309 330 108 278 251 208 260 343 114 91 73 101 192 212 221 197 260 249 246 250 224 268 291 317 288 211 198 266 190 158 144 157
230 241 255 268 279 286 282 293 284 321 339 289 280 337 34 27 254 266 297 0 93 133 180 196 210 208 222 197 205 237 246 252 239 197 279 271 266 264 276 319 274 142 155 162 172
221 228 241 255 271 277 285 303 272 320 334 295 281 22 97 274 249 196 350 150 139 161 215 171 242 227 258 225 214 230 221 253 274 231 245 289 277 261 276 324 226 156 169 172 166
216 214 222 240 260 267 277 280 304 301 301 301 250 115 97 238 246 351 278 211 178 191 227 189 236 230 190 253 216 264 273 225 234 217 228 357 275 229 302 293 102 174 163 162 171
217 198 206 201 254 251 271 278 291 301 290 279 187 78 247 249 190 290 134 217 215 216 241 294 124 240 227 309 265 205 245 210 193 170 196 89 266 1 314 16 61 59 145 176 171
225 202 191 195 228 208 259 257 263 333 13 159 70 114 273 318 9 235 184 232 188 221 218 177 27 279 118 114 247 175 192 195 142 182 127 153 278 359 334 5 65 45 52 126 156
234 196 170 186 205 210 238 263 47 44 50 100 198 348 272 262 258 265 210 221 233 246 279 208 242 205 178 184 208 165 192 178 182 159 182 230 281 300 305 334 17 46 40 79 175
265 178 158 182 196 209 144 120 50 23 231 192 195 243 284 290 299 237 349 335 214 187 254 211 204 202 192 192 235 285 155 124 156 147 112 223 255 265 290 320 346 42 53 88 85
282 163 164 183 188 196 132 193 192 157 257 226 254 263 265 181 278 152 326 277 232 262 267 234 236 188 148 209 207 196 147 136 109 121 98 187 240 281 314 324 302 312 339 40 51
290 160 165 176 176 138 190 211 128 103 92 289 207 230 221 162 230 165 83 313 271 260 247 248 313 156 150 189 167 167 154 152 130 144 163 151 257 229 282 307 262 258 257 272 215
291 158 170 156 137 161 207 171 123 93 66 276 251 265 167 150 276 178 184 213 241 283 264 245 149 143 153 131 162 162 173 134 127 183 91 329 291 249 297 308 258 257 248 271 262
274 167 171 155 144 176 170 128 115 61 45 249 209 203 148 200 19 247 188 197 259 265 231 114 165 101 119 212 171 128 142 123 101 90 119 360 38 295 64 305 266 269 240 241 248
228 169 176 143 67 179 126 108 60 45 264 324 236 329 341 178 204 243 237 223 262 325 21 97 137 153 283 342 130 124 93 76 86 198 73 163 68 317 170 232 205 237 243 232 231
182 166 170 148 190 158 115 65 57 123 299 280 101 24 339 291 340 213 339 345 360 84 354 3 26 25 52 65 36 75 51 51 35 39 120 93 95 230 262 259 281 273 279 240 209
166 161 164 233 141 140 79 62 94 161 215 97 83 2 331 346 301 8 130 4 343 45 75 60 31 2 341 45 92 28 60 145 132 135 58 70 257 264 323 315 302 184 348 106 166
149 118 120 194 137 79 81 81 207 193 179 142 74 89 313 324 342 48 20 353 325 1 98 100 61 315 43 345 86 271 64 182 101 41 71 258 293 312 5 35 39 59 55 59 79
137 123 101 149 191 68 76 216 179 203 120 91 114 232 306 323 15 33 17 332 323 33 259 161 99 6 346 345 60 117 146 106 352 104 90 310 274 261 351 347 17 30 35 27 40
114 114 132 153 114 57 172 215 203 196 129 113 168 148 257 329 49 34 350 347 355 337 49 99 85 316 22 9 358 354 14 41 117 72 130 112 303 230 272 283 8 33 24 30 29
97 102 148 104 109 122 198 200 168 133 179 118 134 135 170 176 41 64 78 301 350 334 29 360 100 66 77 303 306 1 58 55 104 310 63 106 290 24 302 49 83 58 24 351 24
87 82 62 62 140 187 253 205 133 129 153 145 201 236 200 119 83 72 19 341 5 46 61 23 9 63 356 358 359 60 19 86 77 52 300 105 265 349 21 49 39 22 0 0 344
112 120 85 262 141 155 166 153 114 105 128 152 278 155 94 50 20 119 41 2 10 48 58 93 75 134 166 197 154 145 138 107 96 99 179 226 287 303 335 349 336 332 293 325 315
66 165 192 180 189 187 201 135 119 129 71 152 321 212 145 108 65 83 43 3 11 352 42 79 89 64 60 35 68 53 57 102 94 163 138 282 220 273 280 288 287 294 295 314 312
124 143 55 81 137 158 314 187 130 114 128 204 171 114 90 134 178 172 135 148 82 3 52 6 118 90 7 19 19 356 233 164 196 204 258 272 274 248 308 333 320 298 306 303 296
175 357 96 131 123 155 204 171 163 126 40 114 158 112 74 60 105 100 105 99 89 96 68 60 109 62 302 353 347 6 328 175 36 201 221 244 252 350 324 337 313 314 316 294 299